This is the latest recevied weather packets stored in our database for station/object KD4KKF. If no packets are shown the sender has not sent any weather packets the latest 10 day(s).
| Time | Temp. | Humidity | Pressure | Rain* | Wind** | Luminosity | Snow |
|---|---|---|---|---|---|---|---|
| 1777654945 | 17.78° C | 69% | 1016.1 hPa | 0 mm | - | 371 W/m² | - |
| 1777654643 | 17.22° C | 68% | 1016.1 hPa | 0 mm | - | 354 W/m² | - |
| 1777654340 | 17.78° C | 70% | 1015.9 hPa | 0 mm | - | 386 W/m² | - |
| 1777654038 | 16.67° C | 72% | 1016.4 hPa | 0 mm | - | 387 W/m² | - |
| 1777653735 | 16.67° C | 70% | 1016.4 hPa | 0 mm | - | 321 W/m² | - |
| 1777653431 | 16.67° C | 72% | 1016.7 hPa | 0 mm | - | 288 W/m² | - |
| 1777653128 | 16.67° C | 73% | 1016.7 hPa | 0 mm | - | 264 W/m² | - |
| 1777652824 | 16.11° C | 72% | 1016.6 hPa | 0 mm | - | 247 W/m² | - |
| 1777652521 | 16.11° C | 72% | 1016.8 hPa | 0 mm | - | 209 W/m² | - |
| 1777652218 | 16.11° C | 74% | 1016.5 hPa | 0 mm | - | 242 W/m² | - |
| 1777651915 | 16.11° C | 74% | 1016.4 hPa | 0 mm | - | 236 W/m² | - |
| 1777651611 | 16.11° C | 76% | 1016.2 hPa | 0 mm | - | 205 W/m² | - |
| 1777651309 | 16.11° C | 74% | 1016.2 hPa | 0 mm | - | 233 W/m² | - |
| 1777651005 | 16.11° C | 74% | 1016.1 hPa | 0 mm | - | 251 W/m² | - |
| 1777650702 | 16.11° C | 72% | 1016.1 hPa | 0 mm | - | 239 W/m² | - |
| 1777650400 | 15.56° C | 74% | 1016.5 hPa | 0 mm | - | 249 W/m² | - |
| 1777650097 | 15.56° C | 75% | 1016.1 hPa | 0 mm | - | 299 W/m² | - |
| 1777649794 | 15.56° C | 75% | 1016 hPa | 0 mm | - | 292 W/m² | - |
| 1777649491 | 15.56° C | 76% | 1016 hPa | 0 mm | - | 278 W/m² | - |
| 1777649187 | 15° C | 78% | 1015.6 hPa | 0 mm | - | 308 W/m² | - |
| 1777648884 | 15° C | 78% | 1015.9 hPa | 0 mm | - | 298 W/m² | - |
| 1777648278 | 14.44° C | 79% | 1016 hPa | 0 mm | - | 214 W/m² | - |
| 1777647974 | 14.44° C | 80% | 1015.9 hPa | 0 mm | - | 190 W/m² | - |
| 1777647671 | 14.44° C | 80% | 1016 hPa | 0 mm | - | 173 W/m² | - |
| 1777647366 | 14.44° C | 79% | 1016.2 hPa | 0 mm | - | 164 W/m² | - |
* Rain latest hour (hover to see other rain measurements)
** Current wind speed in m/s (hover to see current wind gust speed)